Location: Angwan Shehu
(11.2514°N, 7.4613°E)
Time: 20:35:53
(UTC+00:00)

Courier 1B - All Passes

Search period start: 17 April 2021 00:00
Search period end: 27 April 2021 00:00
Orbit: 962 x 1209 km, 28.3° (Epoch: 17 April)

Date Brightness Start Highest point End Pass type
(mag) Time Alt. Az. Time Alt. Az. Time Alt. Az.
17 Apr - 08:39:38 10° SSW 08:45:13 25° SSE 08:50:34 10° E daylight
17 Apr - 10:32:27 10° WSW 10:39:18 87° SSE 10:45:50 10° ENE daylight
17 Apr - 12:27:49 10° W 12:33:36 32° NNW 12:39:17 10° NE daylight
17 Apr - 14:24:37 10° NW 14:28:45 17° N 14:32:55 10° NE daylight
17 Apr - 16:19:42 10° NW 16:24:18 20° N 16:29:02 10° NE daylight
17 Apr - 18:12:58 10° NW 18:19:17 42° NNE 18:25:58 10° E visible
17 Apr - 20:06:42 10° WNW 20:13:35 66° SSW 20:20:58 10° SE visible
17 Apr - 22:02:54 10° WSW 22:07:56 20° SSW 22:13:10 10° SSE night (unlit)
18 Apr - 07:46:40 10° S 07:51:19 18° SSE 07:55:47 10° ESE daylight
18 Apr - 09:38:37 10° SW 09:45:31 64° SSE 09:52:03 10° ENE daylight
18 Apr - 11:33:26 10° W 11:39:42 41° NNW 11:45:46 10° NE daylight
18 Apr - 13:30:08 10° NW 13:34:37 19° N 13:39:06 10° NE daylight
18 Apr - 15:25:59 10° NW 15:30:09 17° N 15:34:24 10° NE daylight
18 Apr - 17:19:29 10° NW 17:25:20 33° NNE 17:31:26 10° E daylight
18 Apr - 19:12:55 10° WNW 19:19:44 88° SSW 19:27:02 10° ESE visible
18 Apr - 21:08:08 10° W 21:13:57 27° SSW 21:20:04 10° SSE visible
19 Apr - 06:54:19 10° S 06:57:18 13° SSE 07:00:14 10° SE daylight
19 Apr - 08:44:55 10° SW 08:51:43 46° SSE 08:58:08 10° ENE daylight
19 Apr - 10:39:09 10° WSW 10:45:50 55° NNW 10:52:14 10° NE daylight
19 Apr - 12:35:32 10° WNW 12:40:32 22° NNW 12:45:28 10° NE daylight
19 Apr - 14:32:03 10° NW 14:35:59 16° N 14:39:57 10° NE daylight
19 Apr - 16:26:00 10° NW 16:31:20 26° NNE 16:36:50 10° ENE daylight
19 Apr - 18:19:14 10° WNW 18:25:53 69° NNE 18:32:56 10° ESE visible
19 Apr - 20:13:47 10° W 20:20:03 37° SSW 20:26:42 10° SE visible
20 Apr - 07:51:24 10° SSW 07:57:52 34° SSE 08:03:59 10° E daylight
20 Apr - 09:44:57 10° WSW 09:52:01 74° NNW 09:58:39 10° ENE daylight
20 Apr - 11:40:55 10° WNW 11:46:31 27° NNW 11:51:56 10° NE daylight
20 Apr - 13:37:50 10° NW 13:41:48 17° N 13:45:47 10° NE daylight
20 Apr - 15:32:28 10° NW 15:37:18 22° NNE 15:42:12 10° ENE daylight
20 Apr - 17:25:41 10° NW 17:32:03 51° NNE 17:38:43 10° E daylight
20 Apr - 19:19:41 10° WNW 19:26:12 50° SSW 19:33:07 10° SE visible
20 Apr - 21:17:04 10° WSW 21:20:34 14° SSW 21:24:11 10° S visible
21 Apr - 06:58:05 10° SSW 07:03:57 25° SSE 07:09:33 10° E daylight
21 Apr - 08:50:55 10° WSW 08:58:10 83° SSE 09:04:58 10° ENE daylight
21 Apr - 10:46:21 10° W 10:52:32 34° NNW 10:58:26 10° NE daylight
21 Apr - 12:43:22 10° NW 12:47:39 18° N 12:51:53 10° NE daylight
21 Apr - 14:38:49 10° NW 14:43:12 19° N 14:47:36 10° NE daylight
21 Apr - 16:32:10 10° NW 16:38:10 39° NNE 16:44:23 10° E daylight
21 Apr - 18:25:48 10° WNW 18:32:23 69° SSW 18:39:22 10° SE visible
21 Apr - 20:21:47 10° WSW 20:26:35 20° SSW 20:31:35 10° SSE visible
22 Apr - 06:05:06 10° S 06:09:58 18° SSE 06:14:41 10° ESE daylight
22 Apr - 07:57:02 10° SW 08:04:20 61° SSE 08:11:10 10° ENE daylight
22 Apr - 09:51:53 10° W 09:58:36 45° NNW 10:04:57 10° NE daylight
22 Apr - 11:48:43 10° WNW 11:53:31 20° NNW 11:58:12 10° NE daylight
22 Apr - 13:44:57 10° NW 13:49:03 17° N 13:53:07 10° NE daylight
22 Apr - 15:38:40 10° NW 15:44:16 30° NNE 15:49:57 10° E daylight
22 Apr - 17:32:03 10° WNW 17:38:36 87° NNE 17:45:29 10° ESE daylight
22 Apr - 19:27:08 10° W 19:32:41 27° SSW 19:38:31 10° SSE visible
23 Apr - 05:12:45 10° S 05:15:53 13° SSE 05:18:59 10° SE daylight
23 Apr - 07:03:18 10° SW 07:10:27 45° SSE 07:17:09 10° E daylight
23 Apr - 08:57:31 10° WSW 09:04:41 59° NNW 09:11:25 10° NE daylight
23 Apr - 10:53:59 10° WNW 10:59:24 24° NNW 11:04:38 10° NE daylight
23 Apr - 12:50:50 10° NW 12:54:52 17° N 12:58:52 10° NE daylight
23 Apr - 14:45:06 10° NW 14:50:16 25° NNE 14:55:27 10° ENE daylight
23 Apr - 16:38:24 10° NW 16:44:49 65° NNE 16:51:28 10° ESE daylight
23 Apr - 18:32:50 10° W 18:38:51 37° SSW 18:45:11 10° SE visible
24 Apr - 06:09:46 10° SSW 06:16:31 33° SSE 06:22:56 10° E daylight
24 Apr - 08:03:18 10° WSW 08:10:47 79° NNW 08:17:47 10° ENE daylight
24 Apr - 09:59:16 10° WNW 10:05:21 30° NNW 10:11:08 10° NE daylight
24 Apr - 11:56:24 10° NW 12:00:41 17° N 12:04:51 10° NE daylight
24 Apr - 13:51:27 10° NW 13:56:13 21° NNE 14:00:56 10° ENE daylight
24 Apr - 15:44:48 10° NW 15:51:01 48° NNE 15:57:19 10° E daylight
24 Apr - 17:38:47 10° WNW 17:45:05 52° SSW 17:51:39 10° SE daylight
24 Apr - 19:36:01 10° WSW 19:39:18 14° SSW 19:42:40 10° S visible
25 Apr - 05:16:29 10° SSW 05:22:31 24° SSE 05:28:22 10° E daylight
25 Apr - 07:09:14 10° WSW 07:16:52 79° SSE 07:24:02 10° ENE daylight
25 Apr - 09:04:38 10° W 09:11:19 38° NNW 09:17:39 10° NE daylight
25 Apr - 11:01:46 10° NW 11:06:29 19° N 11:11:04 10° NE daylight
25 Apr - 12:57:38 10° NW 13:02:06 19° N 13:06:28 10° NE daylight
25 Apr - 14:51:14 10° NW 14:57:09 36° NNE 15:03:04 10° E daylight
25 Apr - 16:44:54 10° WNW 16:51:20 73° SSW 16:57:59 10° SE daylight
25 Apr - 18:40:47 10° WSW 18:45:23 20° SSW 18:50:09 10° SSE visible
26 Apr - 04:23:33 10° S 04:28:28 18° SSE 04:33:19 10° ESE visible
26 Apr - 06:15:21 10° SW 06:22:56 59° SSE 06:30:08 10° ENE daylight
26 Apr - 08:10:07 10° W 08:17:19 49° NNW 08:24:06 10° NE daylight
26 Apr - 10:06:59 10° WNW 10:12:19 22° NNW 10:17:25 10° NE daylight
26 Apr - 12:03:35 10° NW 12:07:55 18° N 12:12:09 10° NE daylight
26 Apr - 13:57:38 10° NW 14:03:13 29° NNE 14:08:44 10° ENE daylight
26 Apr - 15:51:08 10° WNW 15:57:36 82° NNE 16:04:10 10° ESE daylight
26 Apr - 17:46:10 10° W 17:51:34 28° SSW 17:57:09 10° SSE daylight
